This is the latest recevied weather packets stored in our database for station/object NR6G-12. If no packets are shown the sender has not sent any weather packets the latest 10 day(s).
| Time | Temp. | Humidity | Pressure | Rain* | Wind** | Luminosity | Snow |
|---|---|---|---|---|---|---|---|
| 1777575841 | 15° C | 67% | 1015.6 hPa | 0 mm | - | - | - |
| 1777575481 | 15° C | 67% | 1015.7 hPa | 0 mm | - | - | - |
| 1777574401 | 15° C | 66% | 1015.8 hPa | 0 mm | - | - | - |
| 1777574041 | 15° C | 68% | 1015.8 hPa | 0 mm | - | - | - |
| 1777573681 | 15° C | 66% | 1015.8 hPa | 0 mm | - | - | - |
| 1777573321 | 15° C | 67% | 1015.8 hPa | 0 mm | - | - | - |
| 1777572961 | 15° C | 67% | 1015.9 hPa | 0 mm | - | - | - |
| 1777572601 | 15° C | 66% | 1015.8 hPa | 0 mm | - | - | - |
| 1777572241 | 15° C | 66% | 1015.9 hPa | 0 mm | - | - | - |
| 1777571521 | 15° C | 63% | 1015.9 hPa | 0 mm | - | - | - |
| 1777571161 | 15° C | 64% | 1015.9 hPa | 0 mm | - | - | - |
| 1777570801 | 15° C | 63% | 1015.9 hPa | 0 mm | - | - | - |
| 1777570081 | 15° C | 56% | 1015.9 hPa | 0 mm | - | - | - |
| 1777569721 | 15° C | 53% | 1015.8 hPa | 0 mm | - | - | - |
| 1777569001 | 15° C | 51% | 1015.9 hPa | 0 mm | - | - | - |
| 1777568641 | 15° C | 52% | 1015.8 hPa | 0 mm | - | - | - |
| 1777567921 | 15.56° C | 49% | 1015.8 hPa | 0 mm | - | - | - |
| 1777567561 | 16.11° C | 50% | 1015.8 hPa | 0 mm | - | - | - |
| 1777567201 | 16.11° C | 49% | 1015.9 hPa | 0 mm | - | - | - |
| 1777565761 | 15.56° C | 48% | 1015.9 hPa | 0 mm | - | - | - |
| 1777565401 | 15.56° C | 45% | 1015.9 hPa | 0 mm | - | - | - |
| 1777564681 | 15.56° C | 48% | 1015.9 hPa | 0 mm | - | - | - |
| 1777564321 | 16.11° C | 48% | 1015.9 hPa | 0 mm | - | - | - |
| 1777562881 | 15° C | 52% | 1015.1 hPa | 0 mm | - | - | - |
| 1777562521 | 14.44° C | 55% | 1015.2 hPa | 0 mm | - | - | - |
* Rain latest hour (hover to see other rain measurements)
** Current wind speed in m/s (hover to see current wind gust speed)